User: anonymous   Login
Location: Kergonan
(48.2337°N, 4.5518°W)
Time: 11:46:57
(UTC+00:00)
Language:

Cosmos 773 Rocket - Orbit

View from above orbital plane
View from above orbital plane
View from above satellite
View from above satellite

Ground track
Ground track

The orbit data is extracted from the following two-line orbital elements,

1  8344U 75094B   20089.15494863 -.00000030  00000-0 -10682-5 0  9990
2  8344  74.0573  53.4182 0020692  58.5632 301.7542 14.39153807331839
Epoch (UTC): 29 March 2020 03:43:07
Eccentricity: 0.0020692
inclination: 74.0573°
perigee height: 746 km
apogee height: 776 km
right ascension of ascending node: 53.4182°
argument of perigee: 58.5632°
revolutions per day: 14.39153807
mean anomaly at epoch: 301.7542°
orbit number at epoch: 33183

The dashed part of the orbit path shows where the satellite is in the earth's shadow,  

DLR